Regional Weather Roundup
Issued by NWS

Home | Current Version | Previous Version | Graphics & Text | Print | Product List | Glossary On
Versions: 1 2 3 4 5 6 7 8 9 10 11 12 13 14 15 16 17 18 19 20 21 22 23 24 25 26 27 28 29 30 31 32 33 34 35 36 37 38 39 40 41 42 43 44 45 46 47 48 49 50
000
ASUS43 KTOP 290859
RWRKS

WEATHER ROUNDUP FOR KANSAS
NATIONAL WEATHER SERVICE GOODLAND KS
400 AM CDT SUN MAY 29 2016

NOTE:  "FAIR" INDICATES FEW OR NO CLOUDS BELOW 12,000 FEET WITH NO
SIGNIFICANT WEATHER AND/OR OBSTRUCTIONS TO VISIBILITY.

KSZ001>006-013>018-027>032-041>047-291000-
NORTHWEST KANSAS

CITY           SKY/WX    TMP DP  RH WIND       PRES   REMARKS
GOODLAND       CLOUDY    52  47  83 S6        30.11R
HAYS           CLEAR     55  46  71 SW7       30.07R
HILL CITY      CLEAR     55  52  89 SW5       30.07F
RUSSELL        CLEAR     59  55  87 S12       30.04R
$$

KSZ061>065-074>080-084>089-291000-
SOUTHWEST KANSAS

CITY           SKY/WX    TMP DP  RH WIND       PRES   REMARKS
DODGE CITY     CLOUDY    58  53  84 SE8       30.09R
ELKHART          N/A     61  50  67 W3          N/A
GARDEN CITY    CLOUDY    60  50  69 SE7       30.07R
GREAT BEND     MOCLDY    59  50  72 S6        30.06S
LIBERAL        CLOUDY    59  46  63 S6        30.09S
$$

KSZ066>073-081>083-090>101-291000-
SOUTHEAST KANSAS

CITY           SKY/WX    TMP DP  RH WIND       PRES   REMARKS
CHANUTE        CLEAR     62  60  93 CALM      30.06R
COFFEYVILLE    CLEAR     63  62  97 CALM      30.05S
HUTCHINSON     CLEAR     59  57  93 CALM      30.05S
MEDICINE LODGE   N/A     59  53  80 NE3       30.05R
NEWTON         CLEAR     63  54  72 SE6       30.08F
PARSONS        CLEAR     61  60  97 CALM      30.07R
WICHITA INTL   CLEAR     64  58  80 SE5       30.05S
WICHITA JABRA  CLEAR     61  58  90 S6        30.06R
WINFIELD       CLEAR     65  61  87 E3        30.06R
$$

KSZ007>012-019>026-033>040-048>060-102>105-291000-
NORTHEAST KANSAS

CITY           SKY/WX    TMP DP  RH WIND       PRES   REMARKS
CONCORDIA      CLEAR     61  55  81 W8        30.04R
EMPORIA        CLEAR     60  57  89 S8        30.05S
LAWRENCE       CLEAR     56  55  97 E3        30.03S
MANHATTAN      CLEAR     57  55  93 CALM      30.03R
OLATHE IND     CLEAR     60  58  92 S6        30.05R
OLATHE EXE     CLEAR     60  58  92 CALM      30.05R
SALINA         CLEAR     59  57  93 S7        30.04R
TOPEKA BILLARD   N/A     59  57  93 CALM      30.03R
TOPEKA FORBES  CLEAR     61  58  90 S6        30.04R
$$



USA.gov is the U.S. government's official web portal to all federal, state and local government web resources and services.